Date String (YYYY-MM-DD hh:mm:ss) UTC,Instrument flags,Ambient pressure (hPa),Sample flow (lpm),Bypass flow (lpm),Sample temperature (°C),Ambient temperature (°C),ASC tube jacket temperature (°C),LED temperature (°C),Box temperature (°C),Sample RH (%),Span deviation,Mass concentration (μg/m³),Mass concentration (μg/m³),Mass concentration (μg/m³)
DateTimeUTC,F1_M11,P_M11,Q1_M11,Q2_M11,T1_M11,T2_M11,T3_M11,T4_M11,T5_M11,U1_M11,ZSPAN_M11,X0_M11,X2_M11,X1_M11
2022-09-26 07:00:00,,0833.6,5.01,0.00,30.4,28.7,00.0,39.2,32.1,15.3,0001.6,0014.41,0006.78,0006.15
2022-09-26 07:01:00,,0833.6,4.99,0.00,30.4,28.7,00.0,39.2,32.1,15.1,0001.6,0014.65,0006.82,0006.16
2022-09-26 07:02:00,,0833.6,4.99,0.00,30.4,28.7,00.0,39.2,32.1,15.2,0001.9,0013.96,0006.80,0006.15
2022-09-26 07:03:00,,0833.6,5.01,0.00,30.4,28.7,00.0,39.2,32.1,15.1,0001.5,0013.87,0006.80,0006.17
2022-09-26 07:04:00,,0833.5,4.99,0.00,30.4,28.7,00.0,39.2,32.1,15.1,0001.7,0014.06,0006.85,0006.17
2022-09-26 07:05:00,,0833.6,5.01,0.00,30.3,28.7,00.0,39.2,32.1,15.1,0001.9,0014.06,0006.88,0006.18
2022-09-26 07:06:00,,0833.6,4.99,0.00,30.3,28.6,00.0,39.2,32.1,15.3,0001.8,0014.31,0006.90,0006.19
2022-09-26 07:07:00,,0833.5,5.00,0.00,30.3,28.7,00.0,39.1,32.1,15.3,0001.8,0014.36,0006.91,0006.19
2022-09-26 07:08:00,,0833.5,5.00,0.00,30.3,28.6,00.0,39.1,32.1,15.3,0002.1,0013.31,0006.86,0006.17
2022-09-26 07:09:00,,0833.4,5.00,0.00,30.3,28.6,00.0,39.1,32.1,15.3,0002.3,0012.52,0006.85,0006.16
2022-09-26 07:10:00,,0833.4,5.01,0.00,30.3,28.6,00.0,39.1,32.1,15.1,0002.6,0011.68,0006.87,0006.15
2022-09-26 07:11:00,,0833.4,5.00,0.00,30.3,28.6,00.0,39.1,32.1,15.2,0002.7,0011.48,0006.82,0006.15
2022-09-26 07:12:00,,0833.5,5.01,0.00,30.3,28.6,00.0,39.1,32.1,15.2,0002.5,0011.47,0006.81,0006.15
2022-09-26 07:13:00,,0833.4,5.00,0.00,30.3,28.6,00.0,39.1,32.1,15.2,0002.6,0011.53,0006.83,0006.16
2022-09-26 07:14:00,,0833.4,5.00,0.00,30.3,28.6,00.0,39.1,32.1,15.3,0002.4,0011.57,0006.84,0006.15
2022-09-26 07:15:00,,0833.4,5.00,0.00,30.3,28.6,00.0,39.1,32.1,15.3,0002.5,0011.38,0006.79,0006.13
2022-09-26 07:16:00,,0833.4,4.99,0.00,30.3,28.6,00.0,39.1,32.1,15.2,0002.4,0011.02,0006.77,0006.13
2022-09-26 07:17:00,,0833.4,5.01,0.00,30.3,28.6,00.0,39.1,32.1,15.2,0002.5,0011.10,0006.78,0006.12
2022-09-26 07:18:00,,0833.4,4.99,0.00,30.3,28.6,00.0,39.1,32.1,15.3,0002.4,0011.07,0006.77,0006.11
2022-09-26 07:19:00,,0833.4,5.01,0.00,30.3,28.6,00.0,39.1,32.1,15.2,0002.0,0011.48,0006.81,0006.12
2022-09-26 07:20:00,,0833.4,4.99,0.00,30.3,28.6,00.0,39.1,32.1,15.3,0001.7,0012.02,0006.81,0006.11
2022-09-26 07:21:00,,0833.4,5.00,0.00,30.3,28.6,00.0,39.1,32.1,15.2,0001.5,0012.41,0006.80,0006.11
2022-09-26 07:22:00,,0833.5,5.01,0.00,30.3,28.6,00.0,39.1,32.1,15.1,0001.6,0012.42,0006.79,0006.10
2022-09-26 07:23:00,,0833.4,4.99,0.00,30.3,28.6,00.0,39.1,32.1,15.1,0001.4,0012.64,0006.77,0006.09
2022-09-26 07:24:00,,0833.4,5.00,0.00,30.3,28.6,00.0,39.1,32.0,15.2,0001.2,0012.91,0006.76,0006.09
2022-09-26 07:25:00,,0833.5,5.00,0.00,30.3,28.6,00.0,39.1,32.0,15.2,0001.5,0013.30,0006.77,0006.10
2022-09-26 07:26:00,,0833.4,5.00,0.00,30.2,28.5,00.0,39.1,32.0,15.2,0001.5,0013.35,0006.81,0006.11
2022-09-26 07:27:00,,0833.4,5.00,0.00,30.2,28.5,00.0,39.1,32.0,15.2,0001.7,0013.19,0006.83,0006.12
2022-09-26 07:28:00,,0833.4,5.01,0.00,30.2,28.5,00.0,39.1,32.0,15.2,0001.7,0012.78,0006.82,0006.12
2022-09-26 07:29:00,,0833.4,4.99,0.00,30.2,28.5,00.0,39.1,32.0,15.3,0001.5,0012.77,0006.83,0006.12
2022-09-26 07:30:00,,0833.4,5.01,0.00,30.2,28.5,00.0,39.1,32.0,15.3,0001.5,0012.36,0006.81,0006.13
2022-09-26 07:31:00,,0833.4,4.99,0.00,30.2,28.5,00.0,39.1,32.0,15.3,0001.6,0012.15,0006.81,0006.14
2022-09-26 07:32:00,,0833.4,5.00,0.00,30.2,28.5,00.0,39.1,32.0,15.3,0001.6,0011.99,0006.86,0006.17
2022-09-26 07:33:00,,0833.3,5.00,0.00,30.2,28.6,00.0,39.0,32.0,15.3,0001.5,0012.31,0006.94,0006.21
2022-09-26 07:34:00,,0833.2,5.00,0.00,30.2,28.6,00.0,39.0,32.0,15.2,0001.7,0012.48,0007.00,0006.25
2022-09-26 07:35:00,,0833.3,5.00,0.00,30.2,28.5,00.0,39.0,32.0,15.2,0001.4,0012.47,0007.03,0006.27
2022-09-26 07:36:00,,0833.3,4.99,0.00,30.2,28.5,00.0,39.0,32.0,15.2,0001.6,0012.55,0007.04,0006.29
2022-09-26 07:37:00,,0833.3,5.01,0.00,30.2,28.5,00.0,39.0,32.0,15.2,0001.8,0012.85,0007.04,0006.30
2022-09-26 07:38:00,,0833.3,5.01,0.00,30.2,28.5,00.0,39.0,32.0,15.2,0001.6,0012.97,0007.04,0006.31
2022-09-26 07:39:00,,0833.3,4.99,0.00,30.2,28.5,00.0,39.0,32.0,15.1,0001.5,0013.13,0007.04,0006.31
2022-09-26 07:40:00,,0833.3,5.01,0.00,30.2,28.5,00.0,39.0,32.0,15.2,0001.6,0013.08,0007.01,0006.30
2022-09-26 07:41:00,,0833.3,4.98,0.00,30.2,28.5,00.0,39.0,32.0,15.2,0001.5,0013.04,0007.00,0006.29
2022-09-26 07:42:00,,0833.3,5.01,0.00,30.2,28.5,00.0,39.0,32.0,15.2,0001.3,0012.58,0006.98,0006.28
2022-09-26 07:43:00,,0833.3,5.00,0.00,30.2,28.5,00.0,39.0,32.0,15.2,0001.2,0012.39,0006.95,0006.26
2022-09-26 07:44:00,,0833.3,5.00,0.00,30.2,28.5,00.0,39.0,31.9,15.2,0001.2,0012.08,0006.88,0006.22
2022-09-26 07:45:00,,0833.3,5.00,0.00,30.2,28.5,00.0,39.0,32.0,15.2,0001.5,0011.94,0006.82,0006.18
2022-09-26 07:46:00,,0833.3,5.00,0.00,30.2,28.5,00.0,39.0,32.0,15.2,0001.9,0011.70,0006.82,0006.15
2022-09-26 07:47:00,,0833.3,5.00,0.00,30.2,28.5,00.0,39.0,32.0,15.2,0001.6,0011.26,0006.80,0006.11
2022-09-26 07:48:00,,0833.3,4.99,0.00,30.2,28.5,00.0,39.0,32.0,15.2,0001.2,0011.05,0006.78,0006.09
2022-09-26 07:49:00,,0833.3,5.00,0.00,30.2,28.5,00.0,39.0,32.0,15.2,0001.6,0011.08,0006.76,0006.06
2022-09-26 07:50:00,,0833.3,5.00,0.00,30.2,28.5,00.0,39.0,32.0,15.2,0001.5,0011.63,0006.74,0006.04
2022-09-26 07:51:00,,0833.2,5.01,0.00,30.2,28.5,00.0,39.0,31.9,15.2,0001.7,0011.80,0006.76,0006.04
2022-09-26 07:52:00,,0833.2,4.98,0.00,30.2,28.5,00.0,39.0,31.9,15.2,0001.7,0011.84,0006.75,0006.03
2022-09-26 07:53:00,,0833.2,5.01,0.00,30.2,28.5,00.0,39.0,32.0,15.3,0001.8,0011.81,0006.74,0006.02
2022-09-26 07:54:00,,0833.2,4.99,0.00,30.2,28.5,00.0,39.0,32.0,15.3,0001.8,0012.19,0006.73,0006.01
2022-09-26 07:55:00,,0833.2,5.01,0.00,30.2,28.5,00.0,39.0,32.0,15.2,0001.9,0012.37,0006.75,0006.01
2022-09-26 07:56:00,,0833.2,4.99,0.00,30.2,28.5,00.0,39.0,32.0,15.3,0001.5,0012.09,0006.76,0006.03
2022-09-26 07:57:00,,0833.1,5.01,0.00,30.2,28.5,00.0,39.0,32.0,15.3,0001.0,0012.17,0006.72,0006.04
2022-09-26 07:58:00,,0833.1,4.99,0.00,30.2,28.5,00.0,39.0,32.0,15.2,0000.7,0012.59,0006.70,0006.04
2022-09-26 07:59:00,,0833.1,5.00,0.00,30.1,28.4,00.0,38.9,31.9,15.3,0000.9,0012.38,0006.67,0006.05
